TimeAKDT,TemperatureF,Dew PointF,Humidity,Sea Level PressureIn,VisibilityMPH,Wind Direction,Wind SpeedMPH,Gust SpeedMPH,PrecipitationIn,Events,Conditions,WindDirDegrees,DateUTC
12:53 AM,55.9,51.1,84,29.91,10.0,Calm,Calm,-,N/A,,Overcast,0,2013-08-21 08:53:00
1:53 AM,55.9,52.0,87,29.91,10.0,Calm,Calm,-,N/A,,Overcast,0,2013-08-21 09:53:00
2:53 AM,55.0,51.1,86,29.91,10.0,Calm,Calm,-,N/A,,Overcast,0,2013-08-21 10:53:00
3:53 AM,55.0,51.1,86,29.91,10.0,WNW,3.5,-,N/A,,Overcast,290,2013-08-21 11:53:00
4:53 AM,54.0,51.1,90,29.89,10.0,Calm,Calm,-,N/A,,Overcast,0,2013-08-21 12:53:00
5:53 AM,54.0,51.1,90,29.89,10.0,Calm,Calm,-,N/A,,Overcast,0,2013-08-21 13:53:00
6:53 AM,54.0,51.1,90,29.88,10.0,Calm,Calm,-,0.00,Rain,Light Rain,0,2013-08-21 14:53:00
7:53 AM,54.0,51.1,90,29.88,10.0,Calm,Calm,-,0.00,,Overcast,0,2013-08-21 15:53:00
8:53 AM,55.0,52.0,89,29.88,10.0,Calm,Calm,-,N/A,,Overcast,0,2013-08-21 16:53:00
9:53 AM,55.9,52.0,87,29.87,10.0,Calm,Calm,-,N/A,,Overcast,0,2013-08-21 17:53:00
10:53 AM,57.9,53.1,84,29.87,10.0,Calm,Calm,-,N/A,,Overcast,0,2013-08-21 18:53:00
11:53 AM,55.9,52.0,87,29.87,10.0,Calm,Calm,-,N/A,,Overcast,0,2013-08-21 19:53:00
12:53 PM,57.0,52.0,83,29.87,10.0,Calm,Calm,-,N/A,,Overcast,0,2013-08-21 20:53:00
1:53 PM,57.9,53.1,84,29.86,10.0,East,3.5,-,N/A,,Overcast,80,2013-08-21 21:53:00
2:53 PM,57.9,52.0,81,29.85,10.0,ENE,4.6,-,N/A,,Overcast,60,2013-08-21 22:53:00
3:53 PM,60.1,52.0,75,29.84,10.0,Calm,Calm,-,0.00,,Overcast,0,2013-08-21 23:53:00
4:53 PM,57.0,51.1,81,29.83,10.0,ESE,4.6,-,0.00,,Overcast,120,2013-08-22 00:53:00
5:00 PM,57.2,51.8,82,29.83,10.0,ESE,4.6,-,N/A,,Overcast,120,2013-08-22 01:00:00
5:02 PM,57.2,51.8,82,29.83,10.0,ESE,4.6,-,N/A,,Overcast,120,2013-08-22 01:02:00
5:53 PM,57.9,51.1,78,29.83,10.0,SE,4.6,-,N/A,,Overcast,140,2013-08-22 01:53:00
6:53 PM,57.9,51.1,78,29.81,10.0,Calm,Calm,-,N/A,,Overcast,0,2013-08-22 02:53:00
7:53 PM,57.9,52.0,81,29.81,10.0,Calm,Calm,-,N/A,,Overcast,0,2013-08-22 03:53:00
8:53 PM,57.0,53.1,87,29.81,10.0,Calm,Calm,-,0.01,Rain,Light Rain,0,2013-08-22 04:53:00
9:53 PM,55.9,53.1,90,29.81,6.0,Calm,Calm,-,0.05,Rain,Light Rain,0,2013-08-22 05:53:00
10:53 PM,55.9,54.0,93,29.80,9.0,South,3.5,-,0.07,Rain,Light Rain,180,2013-08-22 06:53:00
11:53 PM,55.9,54.0,93,29.79,8.0,Calm,Calm,-,0.04,Rain,Light Rain,0,2013-08-22 07:53:00